| time (UTC) | temp F | wind direction | speed MPH | gust MPH | rain 1hr in | rain 24hr in | rain mn in | humidity % | barometer mb |
| 20260510184530 | 48 | 40 | 0.0 | 4.0 | 0.00 | 0.00 | 0.00 | 81 | 1027.1 |
| 20260510183115 | 48 | 32 | 0.0 | 0.0 | 0.00 | 0.00 | 0.00 | 77 | 1027.2 |
| 20260510181710 | 50 | 31 | 0.0 | 0.0 | 0.00 | 0.00 | 0.00 | 74 | 1027.1 |
| 20260510180324 | 54 | 27 | 0.0 | 0.0 | 0.00 | 0.00 | 0.00 | 66 | 1027.1 |
| 20260510174920 | 57 | 32 | 0.0 | 0.0 | 0.00 | 0.00 | 0.00 | 57 | 1026.9 |
| 20260510173429 | 59 | 33 | 2.0 | 4.0 | 0.00 | 0.00 | 0.00 | 52 | 1027.0 |
| 20260510172005 | 59 | 41 | 2.0 | 4.0 | 0.00 | 0.00 | 0.00 | 47 | 1027.1 |
| 20260510170714 | 61 | 31 | 2.0 | 4.0 | 0.00 | 0.00 | 0.00 | 44 | 1027.3 |
| 20260510165345 | 63 | 24 | 2.0 | 4.0 | 0.00 | 0.00 | 0.00 | 43 | 1027.3 |
| 20260510164144 | 64 | 22 | 7.0 | 11.0 | 0.00 | 0.00 | 0.00 | 42 | 1027.2 |
| 20260510162819 | 63 | 17 | 9.0 | 11.0 | 0.00 | 0.00 | 0.00 | 43 | 1027.6 |
| 20260510161355 | 63 | 12 | 9.0 | 9.0 | 0.00 | 0.00 | 0.00 | 43 | 1027.8 |
| 20260510160144 | 63 | 344 | 7.0 | 9.0 | 0.00 | 0.00 | 0.00 | 43 | 1027.9 |
| 20260510154942 | 63 | 29 | 11.0 | 11.0 | 0.00 | 0.00 | 0.00 | 45 | 1027.9 |
| 20260510153525 | 64 | 5 | 11.0 | 11.0 | 0.00 | 0.00 | 0.00 | 44 | 1028.0 |
| 20260510152155 | 63 | 33 | 4.0 | 4.0 | 0.00 | 0.00 | 0.00 | 48 | 1027.8 |
| 20260510150940 | 64 | 17 | 13.0 | 16.0 | 0.00 | 0.00 | 0.00 | 45 | 1028.1 |
| 20260510145602 | 64 | 48 | 2.0 | 4.0 | 0.00 | 0.00 | 0.00 | 49 | 1028.2 |
| 20260510144330 | 64 | 61 | 11.0 | 16.0 | 0.00 | 0.00 | 0.00 | 46 | 1028.2 |
| 20260510143000 | 63 | 33 | 2.0 | 4.0 | 0.00 | 0.00 | 0.00 | 47 | 1028.5 |
| 20260510141510 | 64 | 350 | 18.0 | 29.0 | 0.00 | 0.00 | 0.00 | 46 | 1028.5 |
| 20260510140033 | 63 | 38 | 7.0 | 9.0 | 0.00 | 0.00 | 0.00 | 50 | 1028.6 |
| 20260510134559 | 63 | 28 | 9.0 | 11.0 | 0.00 | 0.00 | 0.00 | 48 | 1028.8 |
| 20260510133110 | 63 | 356 | 18.0 | 29.0 | 0.00 | 0.00 | 0.00 | 50 | 1028.7 |
| 20260510131623 | 63 | 65 | 13.0 | 16.0 | 0.00 | 0.00 | 0.00 | 51 | 1028.9 |
| 20260510130325 | 63 | 6 | 18.0 | 25.0 | 0.00 | 0.00 | 0.00 | 51 | 1029.0 |
| 20260510125123 | 63 | 84 | 4.0 | 11.0 | 0.00 | 0.00 | 0.00 | 53 | 1029.1 |
| 20260510123639 | 63 | 26 | 2.0 | 4.0 | 0.00 | 0.00 | 0.00 | 55 | 1029.3 |
| 20260510122358 | 63 | 101 | 16.0 | 20.0 | 0.00 | 0.00 | 0.00 | 55 | 1029.3 |
| 20260510121040 | 61 | 353 | 13.0 | 20.0 | 0.00 | 0.00 | 0.00 | 54 | 1029.5 |
| 20260510115715 | 63 | 33 | 4.0 | 9.0 | 0.00 | 0.00 | 0.00 | 56 | 1029.8 |
| 20260510114355 | 63 | 36 | 9.0 | 11.0 | 0.00 | 0.00 | 0.00 | 55 | 1029.8 |
| 20260510112914 | 61 | 4 | 7.0 | 11.0 | 0.00 | 0.00 | 0.00 | 57 | 1030.2 |
| 20260510111520 | 61 | 24 | 2.0 | 4.0 | 0.00 | 0.00 | 0.00 | 59 | 1030.3 |
| 20260510110239 | 59 | 54 | 13.0 | 16.0 | 0.00 | 0.00 | 0.00 | 57 | 1030.6 |
| 20260510104955 | 59 | 21 | 9.0 | 9.0 | 0.00 | 0.00 | 0.00 | 58 | 1030.8 |
| 20260510103604 | 59 | 49 | 4.0 | 4.0 | 0.00 | 0.00 | 0.00 | 61 | 1030.8 |
| 20260510102354 | 59 | 12 | 2.0 | 4.0 | 0.00 | 0.00 | 0.00 | 58 | 1030.8 |
| 20260510101150 | 59 | 25 | 4.0 | 9.0 | 0.00 | 0.00 | 0.00 | 59 | 1031.2 |
| 20260510095732 | 59 | 10 | 4.0 | 9.0 | 0.00 | 0.00 | 0.00 | 59 | 1031.3 |
| 20260510094450 | 57 | 338 | 7.0 | 9.0 | 0.00 | 0.00 | 0.00 | 64 | 1031.2 |